Hourly Data Report for October 12, 2016

All times are specified in Local Standard Time (LST). Add 1 hour to adjust for Daylight Saving Time where and when it is observed.

RESOLUTE BAY A
NUNAVUT

74°43'01.000" N
94°58'10.000" W
67.70 m
2403498
71924
YRB

Download Data

Hourly Data (October 2016)
Hourly Data Report for October 12, 2016
Temp Definition
°C
Dew Point Temp Definition
°C
Rel Hum Definition
%
Wind Dir Definition
10's deg

Wind Spd Definition
km/h
Visibility Definition
km
Stn Press Definition
kPa
Hmdx Definition


Wind Chill Definition


Weather Definition


TIME
00:00 Legend Double Dagger -14.8 -17.4 81 4 38 24.1 100.34   -27 Snow,Blowing Snow
01:00 Legend Double Dagger -15.7 -18.4 80 4 41 24.1 100.33   -29 Snow,Blowing Snow
02:00 Legend Double Dagger -13.0 -15.2 84 4 40 24.1 100.32   -25 Snow,Blowing Snow
03:00 Legend Double Dagger -12.8 -15.1 83 4 38 24.1 100.32   -24 Blowing Snow
04:00 Legend Double Dagger -10.8 -13.2 83 4 32 24.1 100.31   -21 LegendNANA
05:00 Legend Double Dagger -11.4 -14.0 81 3 31 24.1 100.36   -21 Blowing Snow
06:00 Legend Double Dagger -13.7 -16.1 82 4 42 24.1 100.34   -26 Mainly Clear
07:00 Legend Double Dagger -13.2 -16.0 80 4 47 24.1 100.33   -26 Blowing Snow
08:00 Legend Double Dagger -13.6 -16.4 80 4 43 24.1 100.31   -26 Blowing Snow
09:00 Legend Double Dagger -12.8 -15.6 80 4 52 24.1 100.28   -26 Blowing Snow
10:00 Legend Double Dagger -10.8 -13.6 80 4 46 24.1 100.27   -22 Blowing Snow
11:00 Legend Double Dagger -10.5 -13.3 80 4 43 24.1 100.32   -22 Blowing Snow
12:00 Legend Double Dagger -10.1 -12.8 81 4 40 19.3 100.33   -21 Snow,Blowing Snow
13:00 Legend Double Dagger -11.5 -14.1 81 4 42 24.1 100.34   -23 Snow,Blowing Snow
14:00 Legend Double Dagger -12.2 -15.0 80 4 39 24.1 100.37   -24 Snow,Blowing Snow
15:00 Legend Double Dagger -11.1 -13.8 81 4 35 24.1 100.42   -22 Blowing Snow
16:00 Legend Double Dagger -10.4 -12.9 82 3 32 24.1 100.45   -20 LegendNANA
17:00 Legend Double Dagger -11.9 -14.4 82 4 36 24.1 100.46   -23 Blowing Snow
18:00 Legend Double Dagger -12.3 -14.8 82 3 32 24.1 100.49   -23 Blowing Snow
19:00 Legend Double Dagger -12.6 -15.1 82 5 35 24.1 100.50   -24 LegendNANA
20:00 Legend Double Dagger -12.3 -14.9 81 5 37 24.1 100.49   -23 Blowing Snow
21:00 Legend Double Dagger -10.9 -13.6 81 5 27 24.1 100.47   -20 Cloudy
22:00 Legend Double Dagger -10.0 -12.7 81 25 6 24.1 100.51   -14 LegendNANA
23:00 Legend Double Dagger -10.2 -12.7 82 26 4 24.1 100.53   -13 LegendNANA

Notes on Data Quality.

Legend

  • E = Estimated
  • M = Missing
  • NA = Not Available
  • ‡ = Partner data that is not subject to review by the National Climate Archives
Date modified: